﻿測定場所 (Monitoring sites),日付 (Measurement date),時間 (Measurement time),線量率 最大値 (max) μGy/h,線量率 最小値 (min) μGy/h,線量率 平均値 (average) μGy/h,
小平 (Kodaira),2012-03-04,23:01～24:00,0.0541,0.0475,0.0503,
小平 (Kodaira),2012-03-04,22:01～23:00,0.0521,0.0453,0.0487,
小平 (Kodaira),2012-03-04,21:01～22:00,0.0502,0.0424,0.0467,
小平 (Kodaira),2012-03-04,20:01～21:00,0.0513,0.0404,0.0460,
小平 (Kodaira),2012-03-04,19:01～20:00,0.0464,0.0394,0.0426,
小平 (Kodaira),2012-03-04,18:01～19:00,0.0452,0.0377,0.0408,
小平 (Kodaira),2012-03-04,17:01～18:00,0.0442,0.0370,0.0405,
小平 (Kodaira),2012-03-04,16:01～17:00,0.0426,0.0373,0.0402,
小平 (Kodaira),2012-03-04,15:01～16:00,0.0429,0.0372,0.0403,
小平 (Kodaira),2012-03-04,14:01～15:00,0.0448,0.0368,0.0403,
小平 (Kodaira),2012-03-04,13:01～14:00,0.0442,0.0369,0.0403,
小平 (Kodaira),2012-03-04,12:01～13:00,0.0439,0.0373,0.0404,
小平 (Kodaira),2012-03-04,11:01～12:00,0.0442,0.0374,0.0401,
小平 (Kodaira),2012-03-04,10:01～11:00,0.0434,0.0371,0.0400,
小平 (Kodaira),2012-03-04,09:01～10:00,0.0428,0.0379,0.0401,
小平 (Kodaira),2012-03-04,08:01～09:00,0.0434,0.0382,0.0404,
小平 (Kodaira),2012-03-04,07:01～08:00,0.0436,0.0362,0.0401,
小平 (Kodaira),2012-03-04,06:01～07:00,0.0428,0.0372,0.0401,
小平 (Kodaira),2012-03-04,05:01～06:00,0.0436,0.0366,0.0400,
小平 (Kodaira),2012-03-04,04:01～05:00,0.0436,0.0357,0.0400,
小平 (Kodaira),2012-03-04,03:01～04:00,0.0449,0.0369,0.0405,
小平 (Kodaira),2012-03-04,02:01～03:00,0.0435,0.0367,0.0402,
小平 (Kodaira),2012-03-04,01:01～02:00,0.0427,0.0374,0.0402,
小平 (Kodaira),2012-03-04,00:01～01:00,0.0422,0.0368,0.0399,
小平 (Kodaira),2012-03-03,23:01～24:00,0.0433,0.0371,0.0405,
小平 (Kodaira),2012-03-03,22:01～23:00,0.0441,0.0371,0.0404,
小平 (Kodaira),2012-03-03,21:01～22:00,0.0449,0.0371,0.0409,
小平 (Kodaira),2012-03-03,20:01～21:00,0.0449,0.0386,0.0410,
小平 (Kodaira),2012-03-03,19:01～20:00,0.0454,0.0381,0.0418,
小平 (Kodaira),2012-03-03,18:01～19:00,0.0449,0.0370,0.0406,
小平 (Kodaira),2012-03-03,17:01～18:00,0.0431,0.0369,0.0402,
小平 (Kodaira),2012-03-03,16:01～17:00,0.0437,0.0366,0.0403,
小平 (Kodaira),2012-03-03,15:01～16:00,0.0438,0.0362,0.0403,
小平 (Kodaira),2012-03-03,14:01～15:00,0.0431,0.0366,0.0402,
小平 (Kodaira),2012-03-03,13:01～14:00,0.0449,0.0368,0.0403,
小平 (Kodaira),2012-03-03,12:01～13:00,0.0433,0.0368,0.0401,
小平 (Kodaira),2012-03-03,11:01～12:00,0.0446,0.0369,0.0406,
小平 (Kodaira),2012-03-03,10:01～11:00,0.0439,0.0379,0.0404,
小平 (Kodaira),2012-03-03,09:01～10:00,0.0430,0.0366,0.0403,
小平 (Kodaira),2012-03-03,08:01～09:00,0.0427,0.0372,0.0401,
小平 (Kodaira),2012-03-03,07:01～08:00,0.0424,0.0363,0.0398,
小平 (Kodaira),2012-03-03,06:01～07:00,0.0436,0.0367,0.0399,
小平 (Kodaira),2012-03-03,05:01～06:00,0.0426,0.0368,0.0399,
小平 (Kodaira),2012-03-03,04:01～05:00,0.0437,0.0365,0.0397,
小平 (Kodaira),2012-03-03,03:01～04:00,0.0449,0.0368,0.0407,
小平 (Kodaira),2012-03-03,02:01～03:00,0.0445,0.0386,0.0412,
小平 (Kodaira),2012-03-03,01:01～02:00,0.0461,0.0398,0.0436,
小平 (Kodaira),2012-03-03,00:01～01:00,0.0471,0.0419,0.0445,
小平 (Kodaira),2012-03-02,23:01～24:00,0.0491,0.0391,0.0436,
小平 (Kodaira),2012-03-02,22:01～23:00,0.0434,0.0366,0.0407,
小平 (Kodaira),2012-03-02,21:01～22:00,0.0431,0.0369,0.0403,
小平 (Kodaira),2012-03-02,20:01～21:00,0.0444,0.0386,0.0411,
小平 (Kodaira),2012-03-02,19:01～20:00,0.0448,0.0378,0.0420,
小平 (Kodaira),2012-03-02,18:01～19:00,0.0456,0.0387,0.0423,
小平 (Kodaira),2012-03-02,17:01～18:00,0.0459,0.0400,0.0426,
小平 (Kodaira),2012-03-02,16:01～17:00,0.0495,0.0406,0.0460,
小平 (Kodaira),2012-03-02,15:01～16:00,0.0515,0.0442,0.0472,
小平 (Kodaira),2012-03-02,14:01～15:00,0.0546,0.0464,0.0505,
小平 (Kodaira),2012-03-02,13:01～14:00,0.0576,0.0461,0.0516,
小平 (Kodaira),2012-03-02,12:01～13:00,0.0530,0.0456,0.0493,
小平 (Kodaira),2012-03-02,11:01～12:00,0.0512,0.0445,0.0481,
小平 (Kodaira),2012-03-02,10:01～11:00,0.0494,0.0383,0.0432,
小平 (Kodaira),2012-03-02,09:01～10:00,0.0425,0.0383,0.0405,
小平 (Kodaira),2012-03-02,08:01～09:00,0.0440,0.0372,0.0405,
小平 (Kodaira),2012-03-02,07:01～08:00,0.0436,0.0369,0.0403,
小平 (Kodaira),2012-03-02,06:01～07:00,0.0435,0.0382,0.0411,
小平 (Kodaira),2012-03-02,05:01～06:00,0.0455,0.0377,0.0410,
小平 (Kodaira),2012-03-02,04:01～05:00,0.0453,0.0378,0.0407,
小平 (Kodaira),2012-03-02,03:01～04:00,0.0464,0.0379,0.0408,
小平 (Kodaira),2012-03-02,02:01～03:00,0.0432,0.0379,0.0401,
小平 (Kodaira),2012-03-02,01:01～02:00,0.0447,0.0387,0.0409,
小平 (Kodaira),2012-03-02,00:01～01:00,0.0431,0.0377,0.0407,
小平 (Kodaira),2012-03-01,23:01～24:00,0.0423,0.0368,0.0397,
小平 (Kodaira),2012-03-01,22:01～23:00,0.0427,0.0367,0.0396,
小平 (Kodaira),2012-03-01,21:01～22:00,0.0434,0.0368,0.0395,
小平 (Kodaira),2012-03-01,20:01～21:00,0.0425,0.0359,0.0389,
小平 (Kodaira),2012-03-01,19:01～20:00,0.0409,0.0359,0.0380,
小平 (Kodaira),2012-03-01,18:01～19:00,0.0408,0.0352,0.0380,
小平 (Kodaira),2012-03-01,17:01～18:00,0.0405,0.0357,0.0378,
小平 (Kodaira),2012-03-01,16:01～17:00,0.0401,0.0355,0.0376,
小平 (Kodaira),2012-03-01,15:01～16:00,0.0402,0.0355,0.0374,
小平 (Kodaira),2012-03-01,14:01～15:00,0.0408,0.0352,0.0372,
小平 (Kodaira),2012-03-01,13:01～14:00,0.0398,0.0352,0.0370,
小平 (Kodaira),2012-03-01,12:01～13:00,0.0385,0.0345,0.0364,
小平 (Kodaira),2012-03-01,11:01～12:00,0.0398,0.0344,0.0361,
小平 (Kodaira),2012-03-01,10:01～11:00,0.0368,0.0331,0.0354,
小平 (Kodaira),2012-03-01,09:01～10:00,0.0372,0.0330,0.0349,
小平 (Kodaira),2012-03-01,08:01～09:00,0.0366,0.0330,0.0347,
小平 (Kodaira),2012-03-01,07:01～08:00,0.0372,0.0324,0.0345,
小平 (Kodaira),2012-03-01,06:01～07:00,0.0362,0.0317,0.0344,
小平 (Kodaira),2012-03-01,05:01～06:00,0.0360,0.0323,0.0340,
小平 (Kodaira),2012-03-01,04:01～05:00,0.0356,0.0310,0.0329,
小平 (Kodaira),2012-03-01,03:01～04:00,0.0346,0.0311,0.0329,
小平 (Kodaira),2012-03-01,02:01～03:00,0.0351,0.0309,0.0328,
小平 (Kodaira),2012-03-01,01:01～02:00,0.0344,0.0307,0.0325,
小平 (Kodaira),2012-03-01,00:01～01:00,0.0338,0.0301,0.0321,
小平 (Kodaira),2012-02-29,23:01～24:00,0.0340,0.0301,0.0321,
小平 (Kodaira),2012-02-29,22:01～23:00,0.0342,0.0301,0.0319,
小平 (Kodaira),2012-02-29,21:01～22:00,0.0340,0.0301,0.0321,
小平 (Kodaira),2012-02-29,20:01～21:00,0.0340,0.0298,0.0320,
小平 (Kodaira),2012-02-29,19:01～20:00,0.0346,0.0306,0.0329,
小平 (Kodaira),2012-02-29,18:01～19:00,0.0373,0.0318,0.0347,
小平 (Kodaira),2012-02-29,17:01～18:00,0.0393,0.0348,0.0367,
小平 (Kodaira),2012-02-29,16:01～17:00,0.0383,0.0340,0.0359,
小平 (Kodaira),2012-02-29,15:01～16:00,0.0393,0.0342,0.0361,
小平 (Kodaira),2012-02-29,14:01～15:00,0.0417,0.0356,0.0378,
小平 (Kodaira),2012-02-29,13:01～14:00,0.0446,0.0365,0.0395,
小平 (Kodaira),2012-02-29,12:01～13:00,0.0484,0.0402,0.0437,
小平 (Kodaira),2012-02-29,11:01～12:00,0.0517,0.0434,0.0477,
小平 (Kodaira),2012-02-29,10:01～11:00,0.0531,0.0458,0.0490,
小平 (Kodaira),2012-02-29,09:01～10:00,0.0546,0.0471,0.0507,
小平 (Kodaira),2012-02-29,08:01～09:00,0.0547,0.0465,0.0499,
小平 (Kodaira),2012-02-29,07:01～08:00,0.0521,0.0443,0.0489,
小平 (Kodaira),2012-02-29,06:01～07:00,0.0526,0.0459,0.0490,
小平 (Kodaira),2012-02-29,05:01～06:00,0.0524,0.0457,0.0490,
小平 (Kodaira),2012-02-29,04:01～05:00,0.0538,0.0457,0.0488,
小平 (Kodaira),2012-02-29,03:01～04:00,0.0514,0.0430,0.0470,
小平 (Kodaira),2012-02-29,02:01～03:00,0.0509,0.0435,0.0466,
小平 (Kodaira),2012-02-29,01:01～02:00,0.0487,0.0395,0.0444,
小平 (Kodaira),2012-02-29,00:01～01:00,0.0439,0.0366,0.0399,
小平 (Kodaira),2012-02-28,23:01～24:00,0.0425,0.0367,0.0397,
小平 (Kodaira),2012-02-28,22:01～23:00,0.0437,0.0368,0.0400,
小平 (Kodaira),2012-02-28,21:01～22:00,0.0426,0.0371,0.0397,
小平 (Kodaira),2012-02-28,20:01～21:00,0.0428,0.0365,0.0396,
小平 (Kodaira),2012-02-28,19:01～20:00,0.0433,0.0368,0.0400,
小平 (Kodaira),2012-02-28,18:01～19:00,0.0436,0.0364,0.0395,
小平 (Kodaira),2012-02-28,17:01～18:00,0.0432,0.0366,0.0401,
小平 (Kodaira),2012-02-28,16:01～17:00,0.0435,0.0386,0.0406,
小平 (Kodaira),2012-02-28,15:01～16:00,0.0431,0.0360,0.0401,
小平 (Kodaira),2012-02-28,14:01～15:00,0.0426,0.0374,0.0402,
小平 (Kodaira),2012-02-28,13:01～14:00,0.0446,0.0377,0.0408,
小平 (Kodaira),2012-02-28,12:01～13:00,0.0446,0.0379,0.0406,
小平 (Kodaira),2012-02-28,11:01～12:00,0.0430,0.0369,0.0405,
小平 (Kodaira),2012-02-28,10:01～11:00,0.0433,0.0372,0.0400,
小平 (Kodaira),2012-02-28,09:01～10:00,0.0432,0.0371,0.0403,
小平 (Kodaira),2012-02-28,08:01～09:00,0.0435,0.0372,0.0402,
小平 (Kodaira),2012-02-28,07:01～08:00,0.0432,0.0377,0.0403,
小平 (Kodaira),2012-02-28,06:01～07:00,0.0433,0.0367,0.0404,
小平 (Kodaira),2012-02-28,05:01～06:00,0.0428,0.0369,0.0400,
小平 (Kodaira),2012-02-28,04:01～05:00,0.0430,0.0377,0.0401,
小平 (Kodaira),2012-02-28,03:01～04:00,0.0445,0.0378,0.0405,
小平 (Kodaira),2012-02-28,02:01～03:00,0.0435,0.0373,0.0405,
小平 (Kodaira),2012-02-28,01:01～02:00,0.0443,0.0376,0.0403,
小平 (Kodaira),2012-02-28,00:01～01:00,0.0425,0.0370,0.0401,
小平 (Kodaira),2012-02-27,23:01～24:00,0.0437,0.0369,0.0404,
小平 (Kodaira),2012-02-27,22:01～23:00,0.0436,0.0368,0.0402,
小平 (Kodaira),2012-02-27,21:01～22:00,0.0434,0.0375,0.0403,
小平 (Kodaira),2012-02-27,20:01～21:00,0.0425,0.0366,0.0404,
小平 (Kodaira),2012-02-27,19:01～20:00,0.0433,0.0370,0.0402,
小平 (Kodaira),2012-02-27,18:01～19:00,0.0447,0.0371,0.0406,
小平 (Kodaira),2012-02-27,17:01～18:00,0.0446,0.0367,0.0400,
小平 (Kodaira),2012-02-27,16:01～17:00,0.0426,0.0369,0.0398,
小平 (Kodaira),2012-02-27,15:01～16:00,0.0432,0.0364,0.0401,
小平 (Kodaira),2012-02-27,14:01～15:00,0.0430,0.0366,0.0404,
小平 (Kodaira),2012-02-27,13:01～14:00,0.0450,0.0379,0.0407,
小平 (Kodaira),2012-02-27,12:01～13:00,0.0444,0.0379,0.0411,
小平 (Kodaira),2012-02-27,11:01～12:00,0.0449,0.0368,0.0414,
小平 (Kodaira),2012-02-27,10:01～11:00,0.0435,0.0363,0.0408,
小平 (Kodaira),2012-02-27,09:01～10:00,0.0453,0.0373,0.0412,
小平 (Kodaira),2012-02-27,08:01～09:00,0.0440,0.0380,0.0411,
小平 (Kodaira),2012-02-27,07:01～08:00,0.0435,0.0380,0.0407,
小平 (Kodaira),2012-02-27,06:01～07:00,0.0439,0.0377,0.0408,
小平 (Kodaira),2012-02-27,05:01～06:00,0.0444,0.0382,0.0407,
小平 (Kodaira),2012-02-27,04:01～05:00,0.0447,0.0382,0.0410,
小平 (Kodaira),2012-02-27,03:01～04:00,0.0429,0.0378,0.0404,
小平 (Kodaira),2012-02-27,02:01～03:00,0.0438,0.0371,0.0410,
小平 (Kodaira),2012-02-27,01:01～02:00,0.0434,0.0383,0.0409,
小平 (Kodaira),2012-02-27,00:01～01:00,0.0447,0.0364,0.0409,
